Home   Weather   Rosso   Past weeks
Flag for Mauritania

Past Weather in Rosso, Mauritania — Yesterday and Last 2 Weeks

Now
79 °F

Passing clouds.


Feels Like: 81 °F
Forecast: 105 / 72 °F
Wind: 9 mph from North

Location: Saint Airport-Louis

Current Time: May 30, 2020 at 9:52:56 am

Latest Report: May 30, 2020 at 9:00 am


Visibility: N/A

Pressure: 29.86 "Hg

Humidity: 74%

Dew Point: 70 °F

Location of RossoLocation

Past Weather in Rosso — Graph

°F

Rosso Temperature Yesterday

Maximum temperature yesterday: 86 °F (at 11:00 am)
Minimum temperature yesterday: 72 °F (at 6:00 am)
Average temperature yesterday: 79 °F

High & Low Weather Summary for the Past Weeks

 TemperatureHumidityPressure
High88 °F (May 16, 11:00 am)100% (May 19, 6:00 am)30.01 "Hg (May 19, 6:00 am)
Low66 °F (May 18, 6:00 am)40% (May 16, 3:00 pm)29.74 "Hg (May 29, 5:00 pm)
Average75 °F77%29.88 "Hg
* Reported May 15 8:00 am — May 30 8:00 am, Rosso. Weather by CustomWeather, © 2020

Note: Actual official high and low records may vary slightly from our data, if they occured in-between our weather recording intervals... More about our weather records

Rosso Weather History for the Previous 24 Hours

Scroll right to see more
 ConditionsComfort  
Time TempWeatherWind HumidityBarometerVisibility
8:00 am
Sat, May 30
75 °FPassing clouds.9 mph89%29.86 "HgN/A
7:30 am73 °FPassing clouds.9 mph89%29.83 "HgN/A
6:00 am73 °FClear.2 mph89%29.83 "Hg10 mi
3:00 am75 °FClear.2 mph89%29.80 "Hg10 mi
2:00 am73 °FClear.2 mph94%29.83 "Hg10 mi
1:00 am73 °FClear.2 mph94%29.83 "Hg10 mi
12:00 am75 °FClear.5 mph89%29.83 "Hg10 mi
11:00 pm
Fri, May 29
75 °FClear.5 mph89%29.83 "Hg10 mi
10:00 pm75 °FPassing clouds.7 mph89%29.80 "HgN/A
9:00 pm75 °FPassing clouds.9 mph89%29.77 "HgN/A
8:00 pm77 °FPassing clouds.7 mph83%29.77 "HgN/A
6:00 pm82 °FPassing clouds.7 mph70%29.74 "HgN/A
5:00 pm84 °FPassing clouds.7 mph66%29.74 "HgN/A
4:00 pm84 °FPassing clouds.7 mph66%29.77 "HgN/A
3:00 pm82 °FPassing clouds.9 mph70%29.77 "HgN/A
2:00 pm86 °FPassing clouds.9 mph62%29.80 "HgN/A
1:00 pm86 °FPassing clouds.7 mph62%29.83 "HgN/A
12:00 pm86 °FPassing clouds.12 mph59%29.83 "HgN/A
11:00 am86 °FPassing clouds.9 mph62%29.83 "HgN/A
10:00 am82 °FPassing clouds.12 mph66%29.83 "HgN/A
9:00 am79 °FPassing clouds.7 mph79%29.86 "HgN/A
Weather by CustomWeather, © 2020

See weather overview

Advertising